EW5359 Weather Reports


Display with metric or nautical units.
time (UTC)temp
F
wind
direction
speed
MPH
gust
MPH
rain 1hr
in
rain 24hr
in
rain mn
in
humidity
%
barometer
mb
20200811070017 77 0.0 1.0 0.01 0.42 0.04 86 1020.2
20200811065016 77 0.0 1.0 0.01 0.41 0.03 86 1020.2
20200811064016 77 0.0 1.0 0.01 0.42 0.03 86 1020.5
20200811063017 77 0.0 1.0 0.01 0.42 0.03 85 1020.8
20200811062016 77 0.0 1.0 0.01 0.43 0.03 84 1020.6
20200811061016 78 0.0 1.0 0.01 0.43 0.03 84 1020.6
20200811060017 78 315 1.0 3.0 0.02 0.44 0.03 83 1020.7
20200811055016 78 0.0 1.0 0.01 0.43 0.02 83 1020.6
20200811054016 78 292 1.0 2.0 0.01 0.43 0.02 83 1020.7
20200811053016 78 0.0 1.0 0.01 0.44 0.02 83 1020.8
20200811052016 79 0.0 2.0 0.01 0.44 0.02 82 1020.8
20200811051016 79 292 1.0 2.0 0.01 0.45 0.02 82 1020.8
20200811050016 79 292 1.0 2.0 0.01 0.44 0.01 82 1020.9
20200811045042 80 270 1.0 3.0 0.01 0.45 0.01 82 1020.8
20200811044017 80 0.0 2.0 0.01 0.45 0.01 84 1020.8
20200811043016 80 0.0 1.0 0.01 0.46 0.01 84 1020.8
20200811042016 80 0.0 2.0 0.02 0.46 0.01 84 1020.7
20200811041021 80 0.0 1.0 0.02 0.47 0.01 84 1020.7
20200811040017 81 315 1.0 3.0 0.01 0.46 0.00 83 1020.6
20200811035017 81 315 1.0 2.0 0.01 0.47 0.46 84 1020.4
20200811034016 81 0.0 4.0 0.01 0.47 0.46 83 1020.3
20200811033017 81 0.0 1.0 0.02 0.47 0.46 83 1020.0
20200811032019 82 0.0 2.0 0.01 0.47 0.45 84 1020.0
20200811031016 82 247 1.0 4.0 0.01 0.48 0.45 83 1020.1
20200811030020 82 247 2.0 7.0 0.01 0.48 0.45 83 1020.0
20200811025016 82 247 1.0 4.0 0.01 0.49 0.45 86 1020.0
20200811024016 82 247 1.0 4.0 0.02 0.49 0.45 87 1020.1
20200811023019 82 270 1.0 4.0 0.01 0.49 0.44 87 1020.0
20200811022016 82 202 1.0 5.0 0.01 0.49 0.44 86 1020.0
20200811021017 82 0.0 2.0 0.01 0.50 0.44 86 1020.1
20200811020018 82 337 1.0 4.0 0.02 0.50 0.44 85 1020.1
20200811015016 82 0 1.0 5.0 0.02 0.51 0.44 85 1020.2
20200811014016 82 0.0 5.0 0.01 0.50 0.43 84 1020.2
20200811013018 82 180 1.0 4.0 0.01 0.51 0.43 83 1020.2
20200811012016 82 247 2.0 8.0 0.02 0.52 0.43 83 1020.1
20200811011017 82 225 2.0 5.0 0.02 0.52 0.43 81 1020.1
20200811010018 82 135 1.0 5.0 0.01 0.51 0.42 80 1019.9
20200811005017 82 202 1.0 4.0 0.01 0.52 0.42 79 1019.8
20200811004021 82 202 2.0 5.0 0.02 0.52 0.42 80 1019.8
20200811003017 82 247 1.0 6.0 0.02 0.53 0.42 80 1019.8
20200811002017 82 135 2.0 6.0 0.01 0.52 0.41 81 1019.9
20200811001016 82 337 2.0 4.0 0.01 0.53 0.41 82 1019.8
20200811000016 82 22 2.0 5.0 0.02 0.53 0.41 83 1019.9
20200810235016 82 337 2.0 7.0 0.02 0.54 0.41 82 1019.7
20200810234016 83 315 1.0 4.0 0.01 0.54 0.40 82 1019.7
20200810233016 83 225 2.0 4.0 0.01 0.54 0.40 81 1019.6
20200810232016 83 337 1.0 4.0 0.01 0.55 0.40 80 1019.7
20200810231017 83 270 2.0 4.0 0.02 0.55 0.40 81 1019.7
20200810230016 83 315 2.0 5.0 0.01 0.55 0.39 81 1019.9
20200810225017 83 0 2.0 5.0 0.01 0.56 0.39 80 1020.0
20200810224016 84 247 2.0 9.0 0.01 0.56 0.39 80 1019.8
20200810223017 84 292 2.0 4.0 0.02 0.57 0.39 78 1019.7
20200810222016 84 315 2.0 3.0 0.02 0.57 0.39 78 1019.5
20200810221016 85 270 2.0 4.0 0.01 0.57 0.38 77 1019.6
20200810220017 85 225 2.0 8.0 0.01 0.58 0.38 76 1019.8
20200810215016 85 225 2.0 6.0 0.02 0.58 0.38 76 1019.9
20200810214018 85 0 2.0 7.0 0.02 0.59 0.38 76 1020.2
20200810213016 85 247 2.0 5.0 0.01 0.58 0.37 76 1020.3
20200810212016 85 247 2.0 6.0 0.01 0.59 0.37 75 1020.2
20200810211016 85 225 2.0 6.0 0.02 0.60 0.37 75 1020.3
20200810210015 86 292 2.0 7.0 0.02 0.60 0.37 75 1020.5
20200810205015 85 202 2.0 4.0 0.01 0.60 0.36 75 1020.4
20200810204020 85 67 2.0 6.0 0.01 0.61 0.36 76 1020.2
20200810203017 86 225 2.0 8.0 0.02 0.61 0.36 74 1020.2
20200810202016 86 270 2.0 5.0 0.02 0.62 0.36 73 1020.3
20200810201015 87 270 3.0 7.0 0.01 0.62 0.35 72 1020.3
20200810200017 87 247 2.0 4.0 0.01 0.62 0.35 71 1020.5
20200810195018 87 270 2.0 5.0 0.02 0.63 0.35 71 1020.5
20200810194017 87 225 2.0 7.0 0.02 0.64 0.35 69 1020.5
20200810193016 87 225 3.0 8.0 0.01 0.63 0.34 69 1020.6
20200810192019 87 247 2.0 5.0 0.02 0.64 0.34 70 1020.7
20200810191018 87 225 3.0 8.0 0.02 0.65 0.34 69 1020.8
20200810190021 87 270 3.0 8.0 0.02 0.66 0.34 70 1021.0
20200810185016 87 270 2.0 8.0 0.02 0.66 0.33 68 1021.2
20200810184016 87 225 3.0 6.0 0.02 0.66 0.33 71 1021.4
20200810183016 87 225 2.0 5.0 0.02 0.67 0.33 72 1021.7
20200810182015 87 247 2.0 4.0 0.02 0.67 0.32 73 1021.7
20200810181015 87 247 2.0 5.0 0.02 0.68 0.32 74 1021.7
20200810180032 87 247 2.0 7.0 0.02 0.69 0.32 74 1021.8
20200810175016 87 225 2.0 9.0 0.02 0.68 0.31 74 1021.8
20200810174015 87 225 3.0 5.0 0.02 0.69 0.31 72 1022.0
20200810173021 87 225 3.0 5.0 0.02 0.70 0.31 71 1022.1
20200810172015 86 247 3.0 5.0 0.02 0.70 0.30 72 1022.3
20200810171020 86 225 3.0 5.0 0.02 0.71 0.30 74 1022.3
20200810170017 87 225 2.0 5.0 0.02 0.72 0.30 75 1022.4
20200810165020 86 247 3.0 7.0 0.02 0.72 0.29 75 1022.4
20200810164015 86 247 2.0 5.0 0.02 0.73 0.29 76 1022.4
20200810163019 86 247 3.0 5.0 0.02 0.74 0.29 76 1022.5
20200810162015 86 225 2.0 6.0 0.02 0.73 0.28 77 1022.5
20200810161017 85 247 3.0 5.0 0.02 0.74 0.28 76 1022.6
20200810160017 86 247 3.0 5.0 0.02 0.75 0.28 75 1022.5
20200810155017 85 247 2.0 4.0 0.02 0.75 0.27 75 1022.6
20200810154018 85 247 2.0 5.0 0.02 0.76 0.27 74 1022.6
20200810153017 85 247 3.0 5.0 0.02 0.76 0.27 77 1022.6
20200810152017 85 225 2.0 4.0 0.02 0.76 0.26 77 1022.6
20200810151017 84 225 2.0 4.0 0.02 0.77 0.26 79 1022.6
20200810150017 84 247 2.0 5.0 0.03 0.78 0.26 79 1022.7
20200810145019 84 247 2.0 4.0 0.02 0.78 0.25 79 1022.7
20200810144017 84 225 2.0 4.0 0.02 0.79 0.25 79 1022.8
20200810143020 84 225 1.0 4.0 0.03 0.79 0.25 81 1022.7
20200810142020 83 135 1.0 3.0 0.02 0.79 0.24 80 1022.8
20200810141017 83 225 2.0 4.0 0.03 0.80 0.24 80 1022.9
20200810140017 83 247 1.0 3.0 0.02 0.80 0.23 81 1022.8
20200810135017 82 247 2.0 3.0 0.02 0.81 0.23 84 1022.7
20200810134017 81 247 2.0 4.0 0.03 0.81 0.23 84 1022.7
20200810133017 81 247 2.0 3.0 0.02 0.81 0.22 84 1022.7
20200810132019 80 247 2.0 3.0 0.02 0.81 0.22 85 1022.7
20200810131017 80 247 1.0 2.0 0.02 0.81 0.21 86 1022.7
20200810130018 80 247 2.0 3.0 0.02 0.82 0.21 87 1022.9
20200810125017 79 247 1.0 2.0 0.02 0.82 0.21 88 1022.8
20200810124018 79 0.0 2.0 0.01 0.81 0.20 88 1022.8
20200810123017 79 0.0 1.0 0.02 0.82 0.20 88 1023.0
20200810122017 78 0.0 2.0 0.02 0.82 0.20 90 1023.1
20200810121017 78 0.0 1.0 0.02 0.82 0.19 91 1023.0
20200810120020 77 315 1.0 2.0 0.02 0.82 0.19 92 1023.1
20200810115017 77 0.0 2.0 0.02 0.82 0.19 92 1023.0
20200810114016 77 292 1.0 2.0 0.03 0.83 0.19 93 1023.0
20200810113017 76 0.0 0.0 0.02 0.82 0.18 93 1023.0
20200810112017 76 0.0 0.0 0.02 0.82 0.18 93 1023.0
20200810111018 76 0.0 0.0 0.02 0.82 0.17 92 1022.9
20200810110018 76 0.0 0.0 0.02 0.82 0.17 92 1022.8
20200810105016 77 0.0 0.0 0.02 0.82 0.17 92 1022.8
20200810104017 77 0.0 0.0 0.02 0.82 0.16 92 1022.8
20200810103017 77 0.0 1.0 0.02 0.82 0.16 92 1022.9
20200810102017 77 0.0 1.0 0.02 0.82 0.16 92 1022.9
20200810101016 77 0.0 1.0 0.02 0.82 0.15 91 1022.9
20200810100016 77 292 1.0 2.0 0.02 0.82 0.15 91 1022.9
20200810095016 77 315 1.0 2.0 0.03 0.82 0.15 91 1022.8
20200810094017 77 0.0 2.0 0.02 0.82 0.13 91 1022.9
20200810093017 77 315 1.0 2.0 0.03 0.82 0.13 91 1023.0
20200810092017 77 315 1.0 3.0 0.03 0.82 0.13 90 1023.0
20200810091017 77 315 1.0 2.0 0.02 0.82 0.12 90 1023.0
20200810090017 77 292 1.0 2.0 0.03 0.82 0.12 90 1023.0
20200810085016 78 0.0 2.0 0.02 0.81 0.11 90 1023.0
20200810084017 78 292 1.0 2.0 0.03 0.82 0.11 89 1023.0
20200810083017 78 270 1.0 2.0 0.02 0.81 0.10 89 1023.0
20200810082016 78 270 1.0 2.0 0.02 0.81 0.10 89 1023.2
20200810081016 78 292 1.0 3.0 0.03 0.81 0.10 89 1023.2
20200810080017 78 292 1.0 2.0 0.02 0.80 0.10 89 1023.1
20200810075016 78 292 1.0 2.0 0.02 0.81 0.10 89 1023.1
20200810074016 78 0.0 1.0 0.02 0.80 0.09 89 1023.0
20200810073017 78 0.0 2.0 0.02 0.80 0.09 88 1023.2
20200810072016 78 0.0 2.0 0.03 0.80 0.09 88 1023.0
20200810071017 78 0.0 1.0 0.02 0.79 0.08 88 1023.1